Snowfall_Accumulation
0.0 0.0 0.0 0.0 0.0 0.0 0.0 0.0 0.0 0.0 0.0 0.0 0.0 0.0 0.0 0.0 0.0 0.0 0.0 0.0 0.0 0.0 0.0 0.0 0.0 0.0 0.0 0.0 0.0 0.0 0.0 0.1 0.3 0.0 0.0 0.1 0.0 0.0 0.0 0.0 0.0 0.0 0.0
0.0 0.0 0.0 0.0 0.0 0.0 0.0 0.0 0.0 0.0 0.0 0.0 0.0 0.0 0.0 0.0 0.0 0.0 0.0 0.0 0.0 0.0 0.0 0.0 0.0 0.0 0.0 0.0 0.0 0.0 0.1 0.1 0.5 0.8 0.6 0.5 0.4 0.2 0.2 0.2 0.1 0.1 0.1
0.0 0.0 0.0 0.0 0.0 0.0 0.0 0.0 0.0 0.0 0.0 0.0 0.0 0.0 0.0 0.0 0.0 0.0 0.1 0.1 0.1 0.0 0.0 0.0 0.1 0.1 0.1 0.1 0.1 0.1 0.3 0.4 0.9 1.3 0.6 0.3 0.3 0.2 0.2 0.1 0.1 0.1 0.0
0.0 0.0 0.0 0.0 0.0 0.0 0.0 0.0 0.0 0.0 0.0 0.0 0.0 0.0 0.1 0.3 0.2 0.2 0.1 0.1 0.1 0.1 0.1 0.1 0.1 0.1 0.3 0.5 0.7 0.7 1.3 1.2 1.1 1.4 1.5 1.0 0.7 0.5 0.4 0.5 0.4 0.2 0.2
0.1 0.0 0.0 0.0 0.1 0.0 0.1 0.2 0.2 0.0 0.0 0.0 0.0 0.1 0.1 0.3 0.2 0.2 0.2 0.2 0.2 0.2 0.2 0.3 0.4 0.4 0.3 0.5 0.9 1.3 1.3 1.6 2.2 2.7 2.5 1.7 0.9 0.6 0.6 0.5 0.6 0.4 0.3
0.1 0.1 0.1 0.1 0.1 0.1 0.3 0.3 0.0 0.4 0.4 0.1 0.2 0.1 0.1 0.2 0.1 0.2 0.3 0.5 0.4 0.6 0.7 0.7 0.9 0.8 0.5 0.5 0.6 0.8 1.7 2.8 3.4 3.8 3.3 2.4 1.3 0.8 0.6 0.9 1.3 1.8 1.4
0.1 0.1 0.2 0.2 0.1 0.1 0.1 0.5 0.2 0.5 0.5 0.6 0.4 0.2 0.3 0.3 0.1 0.2 0.5 0.7 0.9 1.0 1.1 1.1 1.0 0.9 0.8 0.6 0.6 1.0 1.5 2.0 2.6 2.8 2.6 1.6 1.3 1.0 1.7 2.6 2.6 2.9 2.0
0.2 0.2 0.2 0.3 0.4 0.6 0.8 1.1 1.2 1.2 1.3 1.5 1.3 1.1 0.8 0.7 0.4 0.6 0.9 1.0 0.9 0.9 0.8 0.7 0.7 0.5 0.5 0.9 1.4 1.9 1.5 1.1 1.0 0.9 1.0 1.0 1.0 1.1 2.2 3.6 3.3 2.3 0.9
0.8 0.7 0.9 1.0 0.9 1.5 1.9 1.9 1.8 1.6 1.7 2.1 1.9 1.9 1.5 1.1 0.3 0.3 0.7 0.9 0.8 0.6 0.5 0.4 0.6 0.6 0.7 1.9 2.7 2.7 1.5 0.6 0.4 0.5 0.9 0.9 0.9 0.8 0.9 2.3 3.3 4.3 3.1
0.8 0.9 0.8 1.1 1.4 1.3 1.9 1.8 1.9 1.9 1.9 2.1 2.2 1.5 1.2 0.9 0.4 0.4 0.4 0.6 0.6 0.5 0.5 0.3 0.4 0.6 1.4 2.6 2.9 2.7 1.7 0.8 1.0 0.8 0.5 0.3 0.3 0.1 0.4 1.8 5.5 9.2 7.0
0.9 0.7 0.9 0.7 1.3 1.2 1.3 1.6 1.3 1.8 1.7 1.6 1.3 0.8 0.6 0.3 0.2 0.2 0.3 0.6 0.8 1.1 0.9 0.4 0.2 1.0 2.0 2.5 2.0 1.1 1.2 2.0 1.6 0.8 0.4 0.3 0.3 0.3 0.4 0.7 2.7 8.4 11.0
1.1 1.1 1.1 1.3 1.3 0.8 0.9 1.1 1.2 0.9 0.7 0.6 0.4 0.3 0.3 0.2 0.2 0.2 0.4 0.9 1.4 1.6 1.3 0.7 0.7 1.6 1.7 1.2 0.6 0.7 1.4 1.4 0.9 1.0 1.0 0.9 1.0 0.9 1.0 1.0 1.3 2.5 5.3
1.3 1.3 1.3 1.2 1.0 0.7 0.6 0.5 0.5 0.5 0.5 0.7 0.5 0.5 0.5 0.3 0.2 0.2 0.6 1.1 1.5 1.5 1.2 1.4 1.6 1.2 0.8 0.5 0.5 0.8 0.9 1.4 2.0 2.9 2.9 2.4 1.7 1.8 1.6 2.2 2.3 2.7 3.6
0.5 0.7 0.8 0.9 0.9 0.8 0.3 0.2 0.3 0.3 0.5 0.7 0.6 0.6 0.6 0.4 0.3 0.4 0.8 1.1 1.3 1.3 1.4 1.5 1.1 0.5 0.5 0.6 0.8 1.1 1.4 1.8 3.3 4.3 3.9 3.1 2.7 3.3 3.6 4.9 6.1 6.4 7.0
0.2 0.3 0.3 0.5 0.8 0.5 0.5 0.2 0.3 0.3 0.5 0.8 0.9 0.8 0.9 0.9 0.7 1.5 1.9 1.7 2.0 2.0 2.0 1.0 0.7 1.1 1.0 1.2 1.3 1.3 1.7 2.1 2.8 3.4 4.0 4.3 4.1 4.9 5.9 6.8 8.5 9.4 9.8
0.4 0.4 0.4 0.5 0.5 0.4 0.5 0.4 0.2 0.1 0.2 0.4 0.4 0.7 0.7 0.9 1.1 1.4 1.6 2.1 2.2 1.7 1.4 1.4 1.4 1.7 1.9 1.8 1.9 2.2 2.4 2.8 3.4 4.7 5.0 5.6 6.5 7.2 8.1 8.5 9.8 11.0 10.4
0.5 0.5 0.5 0.5 0.6 0.6 0.6 0.6 0.6 0.3 0.3 0.3 0.2 0.4 0.5 0.7 0.9 1.1 1.5 1.8 1.2 1.0 1.2 1.9 2.1 2.3 2.4 2.4 2.8 3.2 3.5 3.6 5.0 6.6 7.2 7.8 8.8 9.0 9.8 10.5 10.6 10.4 9.2
0.5 0.5 0.6 0.6 0.7 0.6 0.6 0.7 0.7 0.7 0.6 0.4 0.4 0.2 0.4 0.5 0.6 0.9 1.3 0.9 0.6 0.8 1.4 1.9 2.3 2.6 2.7 3.1 3.5 4.4 5.0 5.2 6.1 7.4 8.2 8.7 10.1 11.1 11.3 11.0 10.4 9.8 9.0
0.6 0.7 0.6 0.6 0.7 0.7 0.6 0.5 0.6 0.7 0.7 0.6 0.5 0.6 0.5 0.3 0.5 0.7 0.8 0.9 1.3 1.6 1.6 1.5 1.7 2.2 3.0 3.4 4.0 4.8 5.9 7.1 8.4 10.0 10.4 10.7 11.2 12.8 12.9 10.9 9.6 8.2 7.4
0.6 0.7 0.7 0.7 0.9 1.0 1.0 0.7 0.7 0.7 1.0 0.8 0.8 0.8 1.0 1.3 1.3 1.0 1.0 1.2 1.8 2.0 2.0 2.1 1.8 1.9 2.8 3.5 4.3 5.2 6.6 7.7 8.9 9.9 10.5 10.7 11.1 12.2 11.9 9.6 7.8 7.2 6.4
0.7 0.7 0.7 0.8 0.9 1.0 1.1 1.1 1.2 1.2 1.2 1.1 1.1 1.1 1.4 2.0 1.4 1.3 1.5 1.9 2.1 2.5 2.7 2.8 2.7 2.7 3.4 4.0 5.0 5.9 7.2 8.4 9.1 10.7 11.1 10.7 10.3 9.6 8.0 7.2 6.8 6.8 6.8
0.9 0.7 0.9 1.0 1.0 1.2 1.5 1.6 1.4 1.4 1.4 1.4 1.2 1.3 1.5 1.4 1.2 1.3 1.5 1.4 1.5 1.8 2.4 3.1 3.4 3.4 4.8 7.0 8.7 9.5 9.3 9.1 9.6 11.0 11.2 10.1 9.0 7.8 7.1 7.1 7.0 7.0 6.9
1.0 1.1 1.2 1.1 1.3 1.5 1.7 1.6 1.6 1.7 1.8 1.7 1.8 1.8 1.8 1.9 1.5 1.5 1.5 1.5 1.5 1.6 1.6 2.5 3.4 3.2 3.9 6.2 8.9 12.5 14.0 12.3 11.4 12.0 12.2 10.5 8.9 8.3 8.3 8.4 7.6 7.4 7.1
1.1 1.3 1.5 1.5 1.5 1.7 1.7 1.7 1.6 1.8 1.9 2.0 2.0 2.0 2.1 2.1 2.1 1.8 1.7 1.7 1.7 1.6 1.7 2.4 3.2 3.6 4.3 6.4 8.2 10.0 11.6 12.9 14.6 14.3 13.6 12.9 10.8 9.1 8.7 8.4 7.4 7.0 6.8
1.4 1.5 1.8 1.8 1.9 1.9 2.0 2.0 2.0 2.0 2.3 2.3 2.3 2.2 2.2 2.3 2.1 2.0 2.1 2.1 1.9 2.0 1.8 2.4 3.2 4.2 5.0 6.5 8.1 9.4 10.0 11.2 12.4 12.5 11.7 11.0 9.8 8.4 8.3 8.0 7.3 6.7 6.7
1.8 2.0 2.1 2.2 2.3 2.0 2.2 2.4 2.5 2.6 2.7 2.7 2.7 2.6 2.7 2.6 2.4 2.3 2.5 2.6 2.8 2.7 2.3 2.5 3.0 4.3 5.6 6.7 7.3 8.5 9.5 9.1 7.3 6.4 8.0 9.2 8.7 7.4 7.5 7.9 7.2 6.9 6.9